Hourly Data Report for September 23, 2017

All times are specified in Local Standard Time (LST). Add 1 hour to adjust for Daylight Saving Time where and when it is observed.

TORONTO INTL A
ONTARIO

43°40'36.000" N
79°37'50.000" W
173.40 m
6158731
71624
YYZ

Download Data

Hourly Data (September 2017)
Hourly Data Report for September 23, 2017
Temp Definition
°C
Dew Point Temp Definition
°C
Rel Hum Definition
%
Wind Dir Definition
10's deg

Wind Spd Definition
km/h
Visibility Definition
km
Stn Press Definition
kPa
Hmdx Definition


Wind Chill Definition


Weather Definition


TIME
00:00 Legend Double Dagger 20.1 11.7 58 30 8 24.1 99.83     LegendNANA
01:00 Legend Double Dagger 19.6 11.8 60 24 4 24.1 99.81     Clear
02:00 Legend Double Dagger 20.1 10.8 55 18 5 24.1 99.72     LegendNANA
03:00 Legend Double Dagger 18.8 10.8 59 26 5 24.1 99.75     LegendNANA
04:00 Legend Double Dagger 17.8 11.0 64 24 4 24.1 99.76     Clear
05:00 Legend Double Dagger 18.5 11.0 61 26 5 24.1 99.81     LegendNANA
06:00 Legend Double Dagger 17.9 12.2 69 36 1 24.1 99.88     LegendNANA
07:00 Legend Double Dagger 19.4 13.4 68 23 4 24.1 99.92     Mainly Clear
08:00 Legend Double Dagger 23.6 15.2 58 26 7 24.1 99.96 28   LegendNANA
09:00 Legend Double Dagger 25.8 15.4 52 25 12 24.1 99.97 30   LegendNANA
10:00 Legend Double Dagger 28.0 15.5 46 27 5 24.1 99.97 32   Mainly Clear
11:00 Legend Double Dagger 30.8 14.1 36 29 9 24.1 99.96 34   LegendNANA
12:00 Legend Double Dagger 31.4 14.6 35 33 5 24.1 99.94 35   LegendNANA
13:00 Legend Double Dagger 31.2 16.7 41 10 5 24.1 99.89 36   Mainly Clear
14:00 Legend Double Dagger 32.5 17.4 40 31 11 24.1 99.85 38   LegendNANA
15:00 Legend Double Dagger 32.5 17.7 41 32 12 24.1 99.79 38   LegendNANA
16:00 Legend Double Dagger 31.4 17.6 43 17 11 24.1 99.76 37   Mainly Clear
17:00 Legend Double Dagger 30.2 17.6 46 15 14 24.1 99.76 36   LegendNANA
18:00 Legend Double Dagger 29.6 17.6 48 14 8 24.1 99.77 35   LegendNANA
19:00 Legend Double Dagger 28.4 17.8 52 17 3 24.1 99.79 34   Clear
20:00 Legend Double Dagger 27.7 18.2 56 34 4 24.1 99.81 34   LegendNANA
21:00 Legend Double Dagger 26.2 18.6 62 30 10 24.1 99.82 33   LegendNANA
22:00 Legend Double Dagger 25.3 18.8 67 32 14 24.1 99.85 32   Clear
23:00 Legend Double Dagger 24.9 19.3 71 33 9 24.1 99.85 32   LegendNANA

Notes on Data Quality.

Legend

  • E = Estimated
  • M = Missing
  • NA = Not Available
  • ‡ = Partner data that is not subject to review by the National Climate Archives
Date modified: